Stations météo

Publicité
Hurguada, Egypte (62463): Température de l'air & dewpoint: 20.06.2017 07:00:00 - 26.06.2017 07:00:00 (EET)Hurguada, Egypte (62463): Vitesse du vent: 20.06.2017 07:00:00 - 26.06.2017 07:00:00 (EET)Hurguada, Egypte (62463): Direction du vent: 20.06.2017 07:00:00 - 26.06.2017 07:00:00 (EET)Hurguada, Egypte (62463): reduced air pressure: 20.06.2017 07:00:00 - 26.06.2017 07:00:00 (EET)Hurguada, Egypte (62463): visibility: 20.06.2017 07:00:00 - 26.06.2017 07:00:00 (EET)
Date & Time tt [°C] td [°C] ff [km/h] ff [knt] dd ppp [hPa] vv [km]
26.06.2017 07:00:00 - - - - - - -
26.06.2017 06:00:00 - - - - - - -
26.06.2017 05:00:00 27,3 9,2 9 5 N 1006,1 10
26.06.2017 04:00:00 - - - - - - -
26.06.2017 03:00:00 - - - - - - -
26.06.2017 02:00:00 30,0 10,3 18 10 NW 1005,5 10
26.06.2017 01:00:00 - - - - - - -
26.06.2017 00:00:00 - - - - - - -
25.06.2017 23:00:00 32,2 9,0 15 8 NW 1005,6 10
25.06.2017 22:00:00 - - - - - - -
25.06.2017 21:00:00 - - - - - - -
25.06.2017 20:00:00 32,0 14,0 22 12 NNW 1005,0 10
25.06.2017 19:00:00 - - - - - - -
25.06.2017 18:00:00 - - - - - - -
25.06.2017 17:00:00 35,0 14,8 28 15 N 1004,1 10
25.06.2017 16:00:00 - - - - - - -
25.06.2017 15:00:00 - - - - - - -
25.06.2017 14:00:00 35,9 12,2 29 16 N 1005,2 10
25.06.2017 13:00:00 - - - - - - -
25.06.2017 12:00:00 - - - - - - -
25.06.2017 11:00:00 33,3 14,7 34 18 N 1007,1 10
25.06.2017 10:00:00 - - - - - - -
25.06.2017 09:00:00 - - - - - - -
25.06.2017 08:00:00 31,1 8,7 22 12 N 1007,1 10
25.06.2017 07:00:00 - - - - - - -
25.06.2017 06:00:00 - - - - - - -
25.06.2017 05:00:00 27,6 6,4 26 14 NW 1006,9 10
25.06.2017 04:00:00 - - - - - - -
25.06.2017 03:00:00 - - - - - - -
25.06.2017 02:00:00 29,4 7,9 26 14 NW 1006,1 10
25.06.2017 01:00:00 - - - - - - -
25.06.2017 00:00:00 - - - - - - -
24.06.2017 23:00:00 31,0 6,8 22 12 WNW 1006,4 10
24.06.2017 22:00:00 - - - - - - -
24.06.2017 21:00:00 - - - - - - -
24.06.2017 20:00:00 32,7 10,5 26 14 NNW 1005,5 10
24.06.2017 19:00:00 - - - - - - -
24.06.2017 18:00:00 - - - - - - -
24.06.2017 17:00:00 33,7 14,8 35 19 N 1004,9 10
24.06.2017 16:00:00 - - - - - - -
24.06.2017 15:00:00 - - - - - - -
24.06.2017 14:00:00 33,9 14,0 39 21 N 1006,1 10
24.06.2017 13:00:00 - - - - - - -
24.06.2017 12:00:00 - - - - - - -
24.06.2017 11:00:00 32,6 14,6 37 20 N 1008,1 10
24.06.2017 10:00:00 - - - - - - -
24.06.2017 09:00:00 - - - - - - -
24.06.2017 08:00:00 29,9 9,9 28 15 NNW 1008,1 10
24.06.2017 07:00:00 - - - - - - -
24.06.2017 06:00:00 - - - - - - -
24.06.2017 05:00:00 26,0 9,0 29 16 NW 1007,0 10
24.06.2017 04:00:00 - - - - - - -
24.06.2017 03:00:00 - - - - - - -
24.06.2017 02:00:00 27,6 11,0 32 17 WNW 1006,9 10
24.06.2017 01:00:00 - - - - - - -
24.06.2017 00:00:00 - - - - - - -
23.06.2017 23:00:00 29,8 7,1 26 14 NW 1007,8 10
23.06.2017 22:00:00 - - - - - - -
23.06.2017 21:00:00 - - - - - - -
23.06.2017 20:00:00 34,1 10,0 34 18 N 1006,5 10
23.06.2017 19:00:00 - - - - - - -
23.06.2017 18:00:00 - - - - - - -
23.06.2017 17:00:00 34,1 10,0 31 17 N 1006,5 10
23.06.2017 16:00:00 - - - - - - -
23.06.2017 15:00:00 - - - - - - -
23.06.2017 14:00:00 33,4 10,3 41 22 N 1008,1 10
23.06.2017 13:00:00 - - - - - - -
23.06.2017 12:00:00 - - - - - - -
23.06.2017 11:00:00 32,6 12,6 37 20 N 1010,0 10
23.06.2017 10:00:00 - - - - - - -
23.06.2017 09:00:00 - - - - - - -
23.06.2017 08:00:00 30,4 8,2 41 22 N 1010,0 10
23.06.2017 07:00:00 - - - - - - -
23.06.2017 06:00:00 - - - - - - -
23.06.2017 05:00:00 25,5 11,8 16 9 WNW 1009,4 10
23.06.2017 04:00:00 - - - - - - -
23.06.2017 03:00:00 - - - - - - -
23.06.2017 02:00:00 27,1 13,2 24 13 WNW 1009,1 10
23.06.2017 01:00:00 - - - - - - -
23.06.2017 00:00:00 - - - - - - -
22.06.2017 23:00:00 28,6 7,3 18 10 WNW 1009,7 10
22.06.2017 22:00:00 - - - - - - -
22.06.2017 21:00:00 - - - - - - -
22.06.2017 20:00:00 30,7 12,0 26 14 N 1008,5 10
22.06.2017 19:00:00 - - - - - - -
22.06.2017 18:00:00 - - - - - - -
22.06.2017 17:00:00 34,2 11,4 31 17 N 1007,2 10
22.06.2017 16:00:00 - - - - - - -
22.06.2017 15:00:00 - - - - - - -
22.06.2017 14:00:00 39,1 14,0 55 30 N 1008,0 10
22.06.2017 13:00:00 - - - - - - -
22.06.2017 12:00:00 - - - - - - -
22.06.2017 11:00:00 33,1 13,7 50 27 N 1009,7 8
22.06.2017 10:00:00 - - - - - - -
22.06.2017 09:00:00 - - - - - - -
22.06.2017 08:00:00 30,4 13,7 35 19 N 1010,0 10
22.06.2017 07:00:00 - - - - - - -
22.06.2017 06:00:00 - - - - - - -
22.06.2017 05:00:00 27,5 13,4 22 12 NW 1008,7 10
22.06.2017 04:00:00 - - - - - - -
22.06.2017 03:00:00 - - - - - - -
22.06.2017 02:00:00 29,7 10,8 29 16 NW 1007,8 10
22.06.2017 01:00:00 - - - - - - -
22.06.2017 00:00:00 - - - - - - -
21.06.2017 23:00:00 31,7 9,8 24 13 NW 1007,5 10
21.06.2017 22:00:00 - - - - - - -
21.06.2017 21:00:00 - - - - - - -
21.06.2017 20:00:00 34,2 10,1 26 14 NNW 1007,3 10
21.06.2017 19:00:00 - - - - - - -
21.06.2017 18:00:00 - - - - - - -
21.06.2017 17:00:00 36,6 13,4 37 20 N 1006,0 10
21.06.2017 16:00:00 - - - - - - -
21.06.2017 15:00:00 - - - - - - -
21.06.2017 14:00:00 37,5 12,9 45 24 N 1006,7 10
21.06.2017 13:00:00 - - - - - - -
21.06.2017 12:00:00 - - - - - - -
21.06.2017 11:00:00 30,9 20,2 28 15 N 1007,6 10
21.06.2017 10:00:00 - - - - - - -
21.06.2017 09:00:00 - - - - - - -
21.06.2017 08:00:00 30,0 17,0 34 18 N 1008,6 10
21.06.2017 07:00:00 - - - - - - -
21.06.2017 06:00:00 - - - - - - -
21.06.2017 05:00:00 30,0 12,1 18 10 N 1007,2 10
21.06.2017 04:00:00 - - - - - - -
21.06.2017 03:00:00 - - - - - - -
21.06.2017 02:00:00 31,5 11,3 34 18 NW 1007,7 10
21.06.2017 01:00:00 - - - - - - -
21.06.2017 00:00:00 - - - - - - -
20.06.2017 23:00:00 33,6 13,6 29 16 WNW 1008,1 10
20.06.2017 22:00:00 - - - - - - -
20.06.2017 21:00:00 - - - - - - -
20.06.2017 20:00:00 36,2 11,8 34 18 NNW 1006,9 10
20.06.2017 19:00:00 - - - - - - -
20.06.2017 18:00:00 - - - - - - -
20.06.2017 17:00:00 38,9 10,3 35 19 N 1005,9 10
20.06.2017 16:00:00 - - - - - - -
20.06.2017 15:00:00 - - - - - - -
20.06.2017 14:00:00 39,4 11,3 29 16 N 1007,4 10
20.06.2017 13:00:00 - - - - - - -
20.06.2017 12:00:00 - - - - - - -
20.06.2017 11:00:00 36,2 14,8 22 12 NNE 1009,2 10
20.06.2017 10:00:00 - - - - - - -
20.06.2017 09:00:00 - - - - - - -
20.06.2017 08:00:00 33,8 15,3 11 6 NNE 1009,2 10
20.06.2017 07:00:00 - - - - - - -

tt = Température de l'air
td = dewpoint
ff = Vitesse du vent
dd = Direction du vent
ppp = reduced air pressure
vv = visibility

stations d'obs. à proximité